Location: Gleizolles
(44.4833°N, 6.7667°E)
Time: 13:41:06
(UTC+00:00)

deb Explorer IX - Pass Details

Date: 27 June 2024
Orbit: 510 x 878 km, 38.7° (Epoch: 21 July)

Event Time Altitude Azimuth Distance (km) Brightness Sun altitude
Rises 10:12:18 0° 268° (W) 2,865 ? 62.7°
Reaches altitude 10° 10:14:53 10° 253° (WSW) 2,024 ? 63.1°
Maximum altitude 10:18:36 23° 201° (SSW) 1,420 ? 63.5°
Drops below altitude 10° 10:22:40 10° 149° (SSE) 2,220 ? 64.0°
Sets 10:25:38 0° 136° (SE) 3,215 ? 64.4°
